| time (UTC) | temp C | wind direction | speed KPH | gust KPH | rain 1hr cm | rain 24hr cm | rain mn cm | humidity % | barometer mb |
| 20260901015100 | 11 | 0.0 | 0.0 | 0.00 | 1.68 | 0.00 | 99 | 1018.4 | |
| 20260901014056 | 11 | 0.0 | 0.0 | 0.00 | 1.68 | 0.00 | 99 | 1018.2 | |
| 20260901011107 | 12 | 0.0 | 0.0 | 0.00 | 1.68 | 0.00 | 99 | 1018.2 | |
| 20260901005041 | 13 | 0.0 | 0.0 | 0.00 | 1.68 | 0.00 | 99 | 1018.0 | |
| 20260901004120 | 13 | 0.0 | 0.0 | 0.00 | 1.68 | 0.00 | 99 | 1017.9 | |
| 20260901001029 | 15 | 216 | 1.6 | 3.2 | 0.00 | 1.68 | 0.00 | 99 | 1017.6 |
| 20260901000025 | 15 | 225 | 1.6 | 6.4 | 0.00 | 1.68 | 0.00 | 99 | 1017.6 |
| 20260831234019 | 15 | 206 | 1.6 | 6.4 | 0.00 | 1.68 | 0.00 | 99 | 1017.7 |
| 20260831233016 | 15 | 207 | 4.8 | 12.9 | 0.00 | 1.68 | 0.00 | 99 | 1017.7 |
| 20260831232153 | 15 | 212 | 4.8 | 9.7 | 0.00 | 1.68 | 0.00 | 99 | 1017.7 |
| 20260831231110 | 15 | 230 | 3.2 | 12.9 | 0.00 | 1.68 | 0.00 | 99 | 1017.7 |
| 20260831230107 | 14 | 204 | 3.2 | 12.9 | 0.00 | 1.68 | 0.00 | 99 | 1017.6 |
| 20260831225105 | 14 | 192 | 4.8 | 9.7 | 0.00 | 1.68 | 0.00 | 99 | 1017.8 |
| 20260831224141 | 14 | 210 | 6.4 | 14.5 | 0.00 | 1.68 | 0.00 | 99 | 1017.7 |
| 20260831223057 | 14 | 203 | 6.4 | 11.3 | 0.00 | 1.68 | 0.00 | 99 | 1017.6 |
| 20260831222054 | 14 | 217 | 4.8 | 12.9 | 0.00 | 1.68 | 0.00 | 99 | 1017.6 |
| 20260831221051 | 14 | 238 | 3.2 | 8.0 | 0.00 | 1.68 | 0.00 | 99 | 1017.6 |
| 20260831220048 | 14 | 225 | 0.0 | 6.4 | 0.15 | 1.68 | 0.00 | 99 | 1017.6 |
| 20260831214034 | 15 | 195 | 3.2 | 12.9 | 0.33 | 1.68 | 1.68 | 98 | 1017.5 |
| 20260831213031 | 15 | 232 | 3.2 | 11.3 | 0.64 | 1.68 | 1.68 | 99 | 1017.5 |
| 20260831212028 | 15 | 249 | 3.2 | 9.7 | 1.22 | 1.68 | 1.68 | 99 | 1017.3 |
| 20260831211045 | 15 | 244 | 4.8 | 14.5 | 1.45 | 1.68 | 1.68 | 99 | 1017.3 |
| 20260831210021 | 15 | 236 | 3.2 | 17.7 | 1.30 | 1.52 | 1.52 | 99 | 1017.5 |
| 20260831205018 | 15 | 269 | 1.6 | 8.0 | 1.30 | 1.52 | 1.52 | 99 | 1017.3 |
| 20260831204017 | 15 | 225 | 1.6 | 6.4 | 1.12 | 1.35 | 1.35 | 99 | 1017.1 |
| 20260831202129 | 16 | 0.0 | 1.6 | 0.20 | 0.46 | 0.46 | 97 | 1016.9 | |
| 20260831201106 | 16 | 206 | 1.6 | 6.4 | 0.00 | 0.23 | 0.23 | 95 | 1016.6 |
| 20260831194057 | 15 | 219 | 1.6 | 12.9 | 0.00 | 0.23 | 0.23 | 94 | 1016.4 |
| 20260831193053 | 15 | 225 | 1.6 | 4.8 | 0.03 | 0.23 | 0.23 | 96 | 1016.2 |
| 20260831192050 | 15 | 180 | 3.2 | 6.4 | 0.05 | 0.23 | 0.23 | 97 | 1016.1 |
| 20260831191047 | 15 | 0.0 | 3.2 | 0.05 | 0.23 | 0.23 | 98 | 1016.0 | |
| 20260831190104 | 15 | 0.0 | 3.2 | 0.05 | 0.23 | 0.23 | 97 | 1015.9 | |
| 20260831185040 | 16 | 203 | 0.0 | 3.2 | 0.05 | 0.23 | 0.23 | 96 | 1015.8 |
| 20260831184037 | 17 | 203 | 1.6 | 6.4 | 0.05 | 0.23 | 0.23 | 94 | 1015.8 |
| 20260831183034 | 17 | 290 | 6.4 | 25.7 | 0.03 | 0.20 | 0.20 | 88 | 1015.9 |
| 20260831182031 | 17 | 180 | 0.0 | 3.2 | 0.00 | 0.18 | 0.18 | 89 | 1015.7 |
| 20260831175022 | 17 | 270 | 0.0 | 3.2 | 0.00 | 0.18 | 0.18 | 85 | 1014.7 |
| 20260831174018 | 18 | 225 | 0.0 | 3.2 | 0.00 | 0.18 | 0.18 | 84 | 1014.4 |
| 20260831171109 | 20 | 0.0 | 3.2 | 0.00 | 0.18 | 0.18 | 74 | 1014.1 | |
| 20260831170106 | 20 | 217 | 1.6 | 6.4 | 0.00 | 0.18 | 0.18 | 72 | 1014.1 |
| 20260831165123 | 21 | 203 | 0.0 | 4.8 | 0.00 | 0.18 | 0.18 | 70 | 1014.0 |
| 20260831164100 | 21 | 264 | 1.6 | 6.4 | 0.00 | 0.18 | 0.18 | 69 | 1014.2 |
| 20260831162054 | 21 | 180 | 0.0 | 4.8 | 0.00 | 0.18 | 0.18 | 65 | 1014.1 |
| 20260831161051 | 22 | 207 | 1.6 | 6.4 | 0.00 | 0.18 | 0.18 | 64 | 1013.9 |
| 20260831160047 | 22 | 79 | 1.6 | 6.4 | 0.00 | 0.18 | 0.18 | 63 | 1013.8 |
| 20260831155034 | 22 | 236 | 3.2 | 11.3 | 0.00 | 0.18 | 0.18 | 62 | 1013.8 |
| 20260831154130 | 22 | 251 | 1.6 | 6.4 | 0.00 | 0.18 | 0.18 | 63 | 1013.8 |
| 20260831153025 | 22 | 206 | 1.6 | 8.0 | 0.00 | 0.18 | 0.18 | 61 | 1013.7 |
| 20260831151017 | 22 | 218 | 1.6 | 6.4 | 0.00 | 0.18 | 0.18 | 63 | 1013.7 |
| 20260831150113 | 22 | 300 | 1.6 | 6.4 | 0.00 | 0.18 | 0.18 | 66 | 1013.9 |
| 20260831145110 | 22 | 247 | 0.0 | 6.4 | 0.00 | 0.18 | 0.18 | 70 | 1014.0 |
| 20260831143104 | 23 | 195 | 1.6 | 11.3 | 0.00 | 0.18 | 0.18 | 69 | 1014.0 |
| 20260831142120 | 22 | 215 | 1.6 | 11.3 | 0.00 | 0.18 | 0.18 | 70 | 1014.0 |
| 20260831141057 | 22 | 228 | 1.6 | 11.3 | 0.00 | 0.18 | 0.18 | 73 | 1014.2 |
| 20260831135051 | 22 | 169 | 3.2 | 12.9 | 0.00 | 0.18 | 0.18 | 74 | 1014.1 |
| 20260831134047 | 21 | 303 | 3.2 | 12.9 | 0.00 | 0.18 | 0.18 | 75 | 1014.2 |
| 20260831133045 | 19 | 64 | 3.2 | 6.4 | 0.00 | 0.18 | 0.18 | 80 | 1014.3 |
| 20260831132041 | 19 | 296 | 1.6 | 8.0 | 0.00 | 0.18 | 0.18 | 84 | 1014.6 |
| 20260831131038 | 21 | 207 | 4.8 | 17.7 | 0.00 | 0.18 | 0.18 | 78 | 1014.5 |
| 20260831125031 | 22 | 250 | 8.0 | 22.5 | 0.00 | 0.18 | 0.18 | 65 | 1013.9 |
| 20260831124029 | 23 | 227 | 4.8 | 17.7 | 0.00 | 0.18 | 0.18 | 64 | 1013.9 |
| 20260831123025 | 24 | 209 | 3.2 | 12.9 | 0.00 | 0.18 | 0.18 | 61 | 1013.8 |
| 20260831121019 | 22 | 209 | 6.4 | 17.7 | 0.00 | 0.18 | 0.18 | 65 | 1013.8 |
| 20260831120016 | 22 | 292 | 3.2 | 14.5 | 0.00 | 0.18 | 0.18 | 67 | 1013.9 |
| 20260831115113 | 22 | 240 | 1.6 | 4.8 | 0.00 | 0.18 | 0.18 | 69 | 1014.1 |
| 20260831114130 | 22 | 188 | 4.8 | 16.1 | 0.00 | 0.18 | 0.18 | 68 | 1014.2 |
| 20260831111100 | 22 | 153 | 1.6 | 11.3 | 0.00 | 0.18 | 0.18 | 68 | 1014.3 |
| 20260831110056 | 22 | 194 | 3.2 | 6.4 | 0.00 | 0.18 | 0.18 | 66 | 1014.3 |
| 20260831105053 | 22 | 258 | 3.2 | 6.4 | 0.00 | 0.18 | 0.18 | 64 | 1014.3 |
| 20260831104050 | 23 | 220 | 3.2 | 12.9 | 0.00 | 0.18 | 0.18 | 68 | 1014.2 |
| 20260831103047 | 22 | 229 | 4.8 | 16.1 | 0.00 | 0.18 | 0.18 | 67 | 1014.3 |
| 20260831102044 | 21 | 244 | 4.8 | 17.7 | 0.00 | 0.18 | 0.18 | 70 | 1014.3 |
| 20260831101040 | 22 | 231 | 6.4 | 24.1 | 0.00 | 0.18 | 0.18 | 71 | 1014.4 |
| 20260831100037 | 22 | 268 | 4.8 | 17.7 | 0.00 | 0.18 | 0.18 | 72 | 1014.4 |
| 20260831095034 | 21 | 241 | 4.8 | 17.7 | 0.00 | 0.18 | 0.18 | 74 | 1014.4 |
| 20260831094031 | 20 | 235 | 1.6 | 9.7 | 0.00 | 0.18 | 0.18 | 79 | 1014.5 |
| 20260831093049 | 20 | 209 | 4.8 | 14.5 | 0.00 | 0.18 | 0.18 | 80 | 1014.5 |
| 20260831092025 | 19 | 244 | 4.8 | 12.9 | 0.00 | 0.18 | 0.18 | 83 | 1014.7 |
| 20260831090039 | 20 | 215 | 8.0 | 24.1 | 0.00 | 0.18 | 0.18 | 82 | 1014.4 |
| 20260831085015 | 20 | 250 | 6.4 | 24.1 | 0.00 | 0.18 | 0.18 | 83 | 1014.3 |
| 20260831084112 | 20 | 228 | 3.2 | 12.9 | 0.00 | 0.18 | 0.18 | 85 | 1014.3 |
| 20260831082106 | 19 | 279 | 1.6 | 6.4 | 0.00 | 0.18 | 0.18 | 87 | 1014.3 |
| 20260831081102 | 19 | 313 | 3.2 | 8.0 | 0.00 | 0.18 | 0.18 | 88 | 1014.2 |
| 20260831075116 | 18 | 255 | 4.8 | 17.7 | 0.00 | 0.18 | 0.18 | 89 | 1013.9 |
| 20260831073050 | 18 | 248 | 1.6 | 8.0 | 0.00 | 0.18 | 0.18 | 94 | 1013.9 |
| 20260831072107 | 17 | 236 | 3.2 | 16.1 | 0.00 | 0.18 | 0.18 | 95 | 1013.8 |
| 20260831071044 | 17 | 197 | 3.2 | 11.3 | 0.00 | 0.18 | 0.18 | 96 | 1013.7 |
| 20260831065038 | 17 | 224 | 3.2 | 9.7 | 0.00 | 0.18 | 0.18 | 98 | 1013.7 |
| 20260831064035 | 17 | 199 | 1.6 | 9.7 | 0.00 | 0.18 | 0.18 | 98 | 1013.6 |
| 20260831063032 | 16 | 214 | 1.6 | 6.4 | 0.00 | 0.18 | 0.18 | 99 | 1013.5 |
| 20260831062028 | 16 | 214 | 1.6 | 11.3 | 0.00 | 0.18 | 0.18 | 99 | 1013.4 |
| 20260831061025 | 16 | 225 | 0.0 | 12.9 | 0.00 | 0.18 | 0.18 | 99 | 1013.2 |
| 20260831060021 | 16 | 215 | 1.6 | 8.0 | 0.00 | 0.18 | 0.18 | 99 | 1013.2 |
| 20260831055040 | 16 | 180 | 0.0 | 3.2 | 0.00 | 0.18 | 0.18 | 99 | 1013.2 |
| 20260831054015 | 16 | 196 | 1.6 | 8.0 | 0.00 | 0.18 | 0.18 | 99 | 1013.0 |
| 20260831053134 | 16 | 0.0 | 3.2 | 0.00 | 0.18 | 0.18 | 99 | 1012.8 | |
| 20260831052129 | 16 | 225 | 0.0 | 3.2 | 0.00 | 0.18 | 0.18 | 99 | 1012.7 |
| 20260831051106 | 16 | 0.0 | 0.0 | 0.00 | 0.18 | 0.18 | 99 | 1012.6 | |
| 20260831044056 | 16 | 0.0 | 0.0 | 0.00 | 0.20 | 0.18 | 99 | 1012.4 | |
| 20260831043053 | 16 | 0.0 | 0.0 | 0.00 | 0.20 | 0.18 | 99 | 1012.3 | |
| 20260831042050 | 16 | 0.0 | 0.0 | 0.00 | 0.20 | 0.18 | 99 | 1012.3 | |
| 20260831040104 | 16 | 0.0 | 3.2 | 0.05 | 0.20 | 0.18 | 99 | 1011.9 | |
| 20260831035101 | 15 | 180 | 0.0 | 3.2 | 0.05 | 0.20 | 0.18 | 99 | 1011.9 |
| 20260831034037 | 16 | 0.0 | 0.0 | 0.15 | 0.20 | 0.18 | 99 | 1011.7 | |
| 20260831033034 | 16 | 0.0 | 0.0 | 0.18 | 0.20 | 0.18 | 99 | 1012.2 | |
| 20260831032031 | 16 | 0.0 | 1.6 | 0.18 | 0.20 | 0.18 | 99 | 1012.0 | |
| 20260831031017 | 16 | 0.0 | 3.2 | 0.15 | 0.18 | 0.15 | 99 | 1012.3 | |
| 20260831030114 | 16 | 220 | 1.6 | 6.4 | 0.13 | 0.15 | 0.13 | 98 | 1012.4 |
| 20260831023103 | 15 | 0.0 | 0.0 | 0.00 | 0.03 | 0.00 | 98 | 1011.6 | |
| 20260831022059 | 15 | 0.0 | 0.0 | 0.00 | 0.03 | 0.00 | 99 | 1011.5 |